Orbital Elements at Epoch 2459200.5 (2020-Dec-17.0) TDB
Reference: JPL 19 (heliocentric ecliptic J2000)
Element | Value | Uncertainty (1-sigma) | Units |
e | .07757409228991358 | 3.7005e-08 | |
a | 2.439738465648609 | 1.6161e-08 | au |
q | 2.250477968751131 | 9.6063e-08 | au |
i | 7.772829483399635 | 3.9544e-06 | deg |
node | 102.0014103192492 | 3.5874e-05 | deg |
peri | 2.726002756440673 | 5.6604e-05 | deg |
M | 277.3439298907418 | 4.7095e-05 | deg |
tp | 2459520.084412798654 (2021-Nov-01.58441280) | 0.00018398 | TDB |
period | 1391.916993578777 3.81 | 1.383e-05 3.786e-08 | d yr |
n | .2586361123980526 | 2.5698e-09 | deg/d |
Q | 2.628998962546086 | 1.7415e-08 | au |
|
| | Orbit Determination Parameters
Additional Information
|